TimeEDT,TemperatureF,Dew PointF,Humidity,Sea Level PressureIn,VisibilityMPH,Wind Direction,Wind SpeedMPH,Gust SpeedMPH,PrecipitationIn,Events,Conditions,WindDirDegrees,DateUTC
12:15 AM,75.4,72.0,89,30.04,10.0,South,3.5,-,N/A,,Overcast,190,2013-08-01 04:15:00
12:35 AM,75.6,72.1,89,30.04,10.0,Calm,Calm,-,N/A,,Overcast,0,2013-08-01 04:35:00
12:55 AM,75.7,72.5,90,30.03,10.0,SW,4.6,-,N/A,,Overcast,220,2013-08-01 04:55:00
1:15 AM,76.1,72.5,89,30.03,10.0,WSW,3.5,-,N/A,,Overcast,240,2013-08-01 05:15:00
1:35 AM,76.1,72.5,89,30.03,10.0,Calm,Calm,-,N/A,,Overcast,0,2013-08-01 05:35:00
1:55 AM,76.1,72.7,89,30.02,10.0,SW,3.5,-,N/A,,Overcast,230,2013-08-01 05:55:00
2:15 AM,76.1,72.7,89,30.01,10.0,SW,3.5,-,N/A,,Overcast,220,2013-08-01 06:15:00
2:35 AM,76.3,72.9,89,30.01,10.0,SW,3.5,-,N/A,,Overcast,230,2013-08-01 06:35:00
2:55 AM,76.1,72.5,89,30.00,10.0,SW,3.5,-,N/A,,Overcast,230,2013-08-01 06:55:00
3:15 AM,76.1,72.5,89,30.00,10.0,Calm,Calm,-,N/A,,Overcast,0,2013-08-01 07:15:00
3:35 AM,76.1,72.5,89,29.99,10.0,WSW,3.5,-,N/A,,Overcast,250,2013-08-01 07:35:00
3:55 AM,76.1,72.7,89,29.99,10.0,WSW,3.5,-,N/A,,Overcast,240,2013-08-01 07:55:00
4:15 AM,76.1,72.7,89,29.99,10.0,Calm,Calm,-,N/A,,Overcast,0,2013-08-01 08:15:00
4:35 AM,76.1,72.7,89,29.99,10.0,Calm,Calm,-,N/A,,Overcast,0,2013-08-01 08:35:00
4:55 AM,76.1,72.7,89,29.99,10.0,Calm,Calm,-,N/A,,Overcast,0,2013-08-01 08:55:00
5:15 AM,76.1,72.7,89,29.99,10.0,Calm,Calm,-,N/A,,Overcast,0,2013-08-01 09:15:00
5:35 AM,76.1,72.7,89,29.99,10.0,Calm,Calm,-,N/A,,Overcast,0,2013-08-01 09:35:00
5:55 AM,76.1,72.9,90,29.99,10.0,Calm,Calm,-,N/A,,Overcast,0,2013-08-01 09:55:00
6:15 AM,76.1,72.9,90,29.99,10.0,Calm,Calm,-,N/A,,Overcast,0,2013-08-01 10:15:00
6:35 AM,76.1,72.9,90,30.00,10.0,Calm,Calm,-,N/A,,Overcast,0,2013-08-01 10:35:00
6:55 AM,76.1,72.9,90,30.00,10.0,Calm,Calm,-,N/A,,Overcast,0,2013-08-01 10:55:00
7:15 AM,76.3,73.0,90,30.01,7.0,Calm,Calm,-,N/A,,Overcast,0,2013-08-01 11:15:00
7:35 AM,76.6,73.0,89,30.01,10.0,West,4.6,-,N/A,,Overcast,270,2013-08-01 11:35:00
7:55 AM,77.0,72.9,87,30.01,10.0,Calm,Calm,-,N/A,,Mostly Cloudy,0,2013-08-01 11:55:00
8:15 AM,77.0,72.5,86,30.01,10.0,Calm,Calm,-,N/A,,Scattered Clouds,0,2013-08-01 12:15:00
8:35 AM,77.5,72.3,84,30.01,10.0,Calm,Calm,-,N/A,,Mostly Cloudy,0,2013-08-01 12:35:00
8:55 AM,77.5,72.0,83,30.01,10.0,WNW,3.5,-,N/A,,Overcast,300,2013-08-01 12:55:00
9:15 AM,77.4,72.0,83,30.02,10.0,Calm,Calm,-,N/A,,Overcast,0,2013-08-01 13:15:00
9:35 AM,77.4,71.6,82,30.02,10.0,WNW,5.8,-,N/A,,Overcast,300,2013-08-01 13:35:00
9:55 AM,77.0,71.6,83,30.02,10.0,WNW,3.5,-,N/A,Rain,Rain,290,2013-08-01 13:55:00
10:15 AM,76.6,71.6,84,30.03,7.0,WNW,3.5,-,N/A,Rain,Light Rain,300,2013-08-01 14:15:00
10:35 AM,77.0,71.8,84,30.03,10.0,Calm,Calm,-,N/A,Rain,Light Rain,0,2013-08-01 14:35:00
10:55 AM,78.1,70.9,78,30.03,10.0,Calm,Calm,-,N/A,,Clear,0,2013-08-01 14:55:00
11:15 AM,78.8,71.4,78,30.03,10.0,WSW,3.5,-,N/A,,Scattered Clouds,240,2013-08-01 15:15:00
11:35 AM,78.8,72.3,80,30.02,10.0,SW,3.5,-,N/A,,Mostly Cloudy,220,2013-08-01 15:35:00
11:55 AM,79.3,71.6,77,30.02,10.0,SW,4.6,-,N/A,,Mostly Cloudy,220,2013-08-01 15:55:00
12:15 PM,80.1,72.1,77,30.02,10.0,SW,4.6,-,N/A,,Mostly Cloudy,220,2013-08-01 16:15:00
12:35 PM,81.1,72.0,74,30.01,10.0,SSW,3.5,-,N/A,,Mostly Cloudy,200,2013-08-01 16:35:00
12:55 PM,82.2,73.2,74,30.00,10.0,SW,3.5,-,N/A,,Scattered Clouds,230,2013-08-01 16:55:00
1:15 PM,82.4,72.1,71,30.00,10.0,SW,3.5,-,N/A,,Scattered Clouds,220,2013-08-01 17:15:00
1:35 PM,83.3,72.5,70,29.99,10.0,Calm,Calm,-,N/A,,Mostly Cloudy,0,2013-08-01 17:35:00
1:55 PM,84.0,72.0,67,29.99,10.0,SSW,4.6,-,N/A,,Mostly Cloudy,210,2013-08-01 17:55:00
2:15 PM,85.3,72.5,65,29.98,10.0,WSW,4.6,-,N/A,,Scattered Clouds,250,2013-08-01 18:15:00
2:35 PM,86.7,72.7,63,29.97,10.0,SSW,4.6,-,N/A,,Clear,210,2013-08-01 18:35:00
2:55 PM,86.9,72.9,63,29.97,10.0,WSW,3.5,-,N/A,,Clear,250,2013-08-01 18:55:00
3:15 PM,86.2,72.7,64,29.96,10.0,SW,4.6,-,N/A,,Scattered Clouds,220,2013-08-01 19:15:00
3:35 PM,86.5,73.0,64,29.96,10.0,SSW,4.6,-,N/A,,Scattered Clouds,200,2013-08-01 19:35:00
3:55 PM,87.6,71.8,59,29.95,10.0,SW,4.6,-,N/A,,Scattered Clouds,220,2013-08-01 19:55:00
4:15 PM,88.0,72.5,60,29.95,10.0,West,4.6,-,N/A,,Scattered Clouds,260,2013-08-01 20:15:00
4:35 PM,87.8,72.9,61,29.94,10.0,SSW,4.6,-,N/A,,Scattered Clouds,200,2013-08-01 20:35:00
4:55 PM,87.8,73.2,62,29.93,10.0,South,5.8,-,N/A,,Scattered Clouds,190,2013-08-01 20:55:00
5:15 PM,88.3,73.2,61,29.93,10.0,SW,5.8,-,N/A,,Scattered Clouds,230,2013-08-01 21:15:00
5:35 PM,88.2,72.3,59,29.93,10.0,South,3.5,-,N/A,,Clear,190,2013-08-01 21:35:00
5:55 PM,88.5,72.5,59,29.94,10.0,South,3.5,-,N/A,,Clear,190,2013-08-01 21:55:00
6:15 PM,88.2,72.5,60,29.94,10.0,SSW,6.9,-,N/A,,Scattered Clouds,210,2013-08-01 22:15:00
6:35 PM,86.0,73.8,67,29.94,10.0,South,5.8,-,N/A,,Scattered Clouds,190,2013-08-01 22:35:00
6:55 PM,85.8,73.8,67,29.94,10.0,South,3.5,-,N/A,,Mostly Cloudy,190,2013-08-01 22:55:00
7:15 PM,84.2,72.7,68,29.95,10.0,SSW,6.9,-,N/A,,Scattered Clouds,210,2013-08-01 23:15:00
7:35 PM,81.9,71.8,71,29.96,10.0,South,3.5,-,N/A,,Scattered Clouds,190,2013-08-01 23:35:00
7:55 PM,80.6,71.6,74,29.95,10.0,South,3.5,-,N/A,,Scattered Clouds,190,2013-08-01 23:55:00
8:15 PM,79.9,71.4,75,29.95,10.0,South,3.5,-,N/A,,Clear,190,2013-08-02 00:15:00
8:35 PM,79.7,71.4,76,29.95,10.0,South,3.5,-,N/A,,Scattered Clouds,190,2013-08-02 00:35:00
8:55 PM,78.8,71.6,78,29.96,10.0,South,3.5,-,N/A,,Scattered Clouds,190,2013-08-02 00:55:00
9:15 PM,78.4,71.8,80,29.98,10.0,Calm,Calm,-,N/A,,Clear,0,2013-08-02 01:15:00
9:35 PM,78.1,72.3,82,29.99,10.0,Calm,Calm,-,N/A,,Clear,0,2013-08-02 01:35:00
9:55 PM,77.5,72.5,84,29.98,10.0,South,4.6,-,N/A,,Clear,180,2013-08-02 01:55:00
10:15 PM,77.4,72.7,85,29.96,10.0,South,3.5,-,N/A,,Clear,190,2013-08-02 02:15:00
10:35 PM,77.0,72.7,86,29.96,10.0,SSW,3.5,-,N/A,,Clear,200,2013-08-02 02:35:00
10:55 PM,77.2,72.9,86,29.97,10.0,Calm,Calm,-,N/A,,Clear,0,2013-08-02 02:55:00
11:15 PM,77.0,72.9,87,29.98,10.0,Calm,Calm,-,N/A,,Clear,0,2013-08-02 03:15:00
11:35 PM,76.6,72.9,88,29.97,10.0,Calm,Calm,-,N/A,Thunderstorm,Clear,0,2013-08-02 03:35:00
11:55 PM,76.5,72.9,89,29.98,7.0,Calm,Calm,-,N/A,,Clear,0,2013-08-02 03:55:00